Regional Weather Roundup
Issued by NWS

Home | Current Version | Previous Version | Graphics & Text | Print | Product List | Glossary On
Versions: 1 2 3 4 5 6 7 8 9 10 11 12 13 14 15 16 17 18 19 20 21 22 23 24 25 26 27
000
ASUS45 KBOU 170110
RWRCO

WEATHER ROUNDUP FOR COLORADO
NATIONAL WEATHER SERVICE DENVER/BOULDER CO
600 PM MST SAT DEC 16 2017

NOTE: "FAIR" INDICATES FEW OR NO CLOUDS BELOW 12000 FEET WITH NO
SIGNIFICANT WEATHER AND/OR OBSTRUCTIONS TO VISIBILITY.

COZ001>005-013-030-031-170200-
...NORTHWEST COLORADO...

CITY           SKY/WX    TMP DP  RH WIND       PRES   REMARKS
CRAIG          FAIR      25  16  68 CALM      29.80R
HAYDEN         FAIR      29  17  61 CALM      29.80R
MEEKER         FAIR      31  12  45 NE3       29.77R
RABBIT EARS PA CLOUDY    27  -8  22 W3        29.82R
STEAMBOAT SPGS FAIR      28  16  58 CALM      29.78S
WALDEN         CLOUDY    25  12  58 NW6       29.81R WCI  18
$$

COZ006>008-011-170200-
...WEST CENTRAL VALLEYS...

CITY           SKY/WX    TMP DP  RH WIND       PRES   REMARKS
GRAND JUNCTION FAIR      32   9  38 CALM      29.79R
MONTROSE       FAIR      33   7  33 CALM      29.80R
EAGLE          MOCLDY    26  14  60 NW3       29.83R
RIFLE          FAIR      32  10  40 SE3       29.79R
DELTA          FAIR      37   7  28 NE5       29.78R
NUCLA          FAIR      41   0  17 CALM      29.81
$$

COZ017>023-064>068-170200-
...SOUTHWEST COLORADO...

CITY           SKY/WX    TMP DP  RH WIND       PRES   REMARKS
DURANGO        FAIR      40   8  26 SW5       29.78R
CORTEZ         FAIR      31  10  41 CALM      29.79S
PAGOSA SPRINGS FAIR      35  -1  22 W3        29.80R
TELLURIDE      CLOUDY    34  -5  18 SE5       29.83R WCI  30
WOLF CREEK PAS MOCLDY    23   3  42 SW13      29.91S WCI  11
$$

COZ009-010-012-014-032>034-037-058>063-170200-
...CENTRAL COLORADO...

CITY           SKY/WX    TMP DP  RH WIND       PRES   REMARKS
ASPEN          MOCLDY    29  17  61 CALM      29.75S
BUENA VISTA    FAIR      24  16  70 W5        29.81R WCI  19
COPPER MTN     NOT AVBL
BERTHOUD PASS  FAIR      18   7  62 SE14      29.88R WCI   4
COTTONWOOD PAS FAIR      36  10  35 E3        29.84R
GUNNISON       FAIR      23   9  55 CALM      29.82R
KREMMLING      FAIR      27  16  63 CALM      29.83R
LEADVILLE      FAIR      27   5  39 NE3       29.81R
MONARCH PASS   CLOUDY    23   3  42 NE24      29.95S WCI   7
SALIDA         FAIR      40   4  22 E8        29.87R
SUNLIGHT       CLOUDY    27  -6  24 SW6       29.86S WCI  20
WILKERSON PASS FAIR      21   3  45 SE8       29.90R WCI  12
$$

COZ069>075-170200-
...SAN LUIS VALLEY/SANGRE DE CRISTO MOUNTAINS...

CITY           SKY/WX    TMP DP  RH WIND       PRES   REMARKS
ALAMOSA        FAIR      26  15  63 W3        29.76R
DEL NORTE      FAIR      26  11  52 CALM      29.78R
LA VETA PASS   FAIR      27   5  39 N23         N/A  WCI  12
SAGUACHE       FAIR      23  10  58 N6        29.78R WCI  16
$$

COZ035-036-038>040-170200-
...NORTHERN COLORADO FRONT RANGE...

CITY           SKY/WX    TMP DP  RH WIND       PRES   REMARKS
DENVER INTL AP FAIR      33  18  53 NE10      29.85R WCI  25
DMNS CITY PARK NOT AVBL
AURORA         MOCLDY    31  16  53 E9        29.85R WCI  23
FRONT RANGE AP MOCLDY    32  19  59 E6        29.86R WCI  26
ERIE MUNI ARPT FAIR      39  14  35 E7        29.91R
BOULDER MUN AP FAIR      37  18  44 NE6       29.85R
CENTENNIAL     FAIR      34  16  47 E5        29.84R WCI  30
BROOMFIELD     MOCLDY    39  14  35 N6        29.86R
FORT COLLINS   FAIR      38  20  48 E8        29.87R
LONGMONT       FAIR      41  18  40 E6        29.88R
$$

COZ041-046-047-076>085-087-088-170200-
...PIKES PEAK/PALMER DIVIDE AND SOUTHERN FOOTHILLS...

CITY           SKY/WX    TMP DP  RH WIND       PRES   REMARKS
COLO. SPRINGS  FAIR      32  10  40 N9        29.82S WCI  24
A. F. ACADEMY  FAIR      32   9  37 N9        29.82R WCI  25
SCHRIEVER AFB  FAIR      33  10  39 N10       29.82R WCI  24
CHEYENNE MTN   FAIR      37   9  30 NW12      29.77R
ELLICOTT         N/A    N/A N/A N/A NE10      29.80R
FALCON         FAIR      32  10  39 N9        29.83S WCI  24
FORT CARSON    FAIR      35  10  35 N9        29.80R WCI  28
LIMON          FAIR      23  13  65 N7        29.84R WCI  15
MONUMENT HILL  FAIR      30  12  47 N5        29.85S WCI  25
CANON CITY     FAIR      43  12  28 NE8       29.78R
WALSENBURG     FAIR      32   9  37 NW8       29.80R WCI  25
TRINIDAD       FAIR      36  13  38 NW7       29.77R
$$

COZ042>045-048>051-090-091-170200-
...NORTHEAST COLORADO...

CITY           SKY/WX    TMP DP  RH WIND       PRES   REMARKS
GREELEY ARPT   FAIR      38  22  52 E10       29.88R
AKRON          FAIR      29  22  75 NE12      29.87R WCI  19
BURLINGTON     FAIR      36  22  56 NE13      29.81R
WRAY           FAIR      34  28  80 N14       29.87R WCI  24
YUMA           FAIR      32  27  80 N12       29.87R WCI  23
STERLING       FAIR      34  28  80 NE10      29.90R WCI  26
HOLYOKE        CLOUDY    36  30  80 NE10      29.90R
FORT MORGAN    FAIR      35  23  62 NE13      29.89R WCI  26
$$

COZ086-089-092>099-170200-
...SOUTHEAST COLORADO...

CITY           SKY/WX    TMP DP  RH WIND       PRES   REMARKS
PUEBLO         FAIR      42  10  27 N15       29.78R
LA JUNTA       FAIR      41  16  36 N14       29.76R
LAMAR          FAIR      38  14  37 NE7       29.72R
SPRINGFIELD      N/A     30  13  49 SW6       29.71R WCI  24
$$




USA.gov is the U.S. government's official web portal to all federal, state and local government web resources and services.